Home   Weather   42°02'N, 92°54'W   Past weeks
Flag for USA

Past Weather in 42°02'N, 92°54'W, USA — Yesterday and Last 2 Weeks

Now
48 °F

Scattered clouds.


Feels Like: 42 °F
Forecast: 57 / 35 °F
Wind: 15 mph from North

Location: Newton Municipal

Current Time: Oct 23, 2019 at 5:16:59 pm

Latest Report: Oct 23, 2019 at 4:35 pm


Visibility: 9 mi

Pressure: 29.87 "Hg

Humidity: 94%

Dew Point: 46 °F

Location of 42°02'N, 92°54'WLocation

Past Weather in 42°02'N, 92°54'W — Graph

°F

42°02'N, 92°54'W Temperature Yesterday

Maximum temperature yesterday: 54 °F (at 2:55 pm)
Minimum temperature yesterday: 39 °F (at 10:15 pm)
Average temperature yesterday: 46 °F

High & Low Weather Summary for the Past Weeks

 TemperatureHumidityPressure
High72 °F (Oct 18, 1:55 pm)100% (Oct 9, 11:15 pm)30.16 "Hg (Oct 9, 11:15 pm)
Low30 °F (Oct 12, 1:55 am)29% (Oct 12, 3:35 pm)29.31 "Hg (Oct 21, 7:15 am)
Average48 °F78%29.86 "Hg
* Reported Oct 8 4:15 pm — Oct 23 4:15 pm, 42°02'N, 92°54'W. Weather by CustomWeather, © 2019

Note: Actual official high and low records may vary slightly from our data, if they occured in-between our weather recording intervals... More about our weather records

Advertising

42°02'N, 92°54'W Weather History for the Previous 24 Hours

Scroll right to see more
 ConditionsComfort  
Time TempWeatherWind HumidityBarometerVisibility
4:15 pm
Wed, Oct 23
50 °FFog.12 mph88%29.84 "Hg6 mi
3:55 pm52 °FBroken clouds.14 mph82%29.85 "Hg10 mi
3:35 pm54 °FScattered clouds.13 mph82%29.82 "Hg10 mi
3:15 pm55 °FBroken clouds.9 mph67%29.82 "Hg10 mi
2:55 pm55 °FMostly cloudy.8 mph72%29.82 "Hg10 mi
2:35 pm55 °FMostly cloudy.7 mph67%29.84 "Hg10 mi
2:15 pm55 °FOvercast.6 mph67%29.80 "Hg10 mi
1:55 pm57 °FBroken clouds.14 mph59%29.77 "Hg10 mi
1:35 pm57 °FScattered clouds.14 mph59%29.78 "Hg10 mi
1:15 pm57 °FBroken clouds.10 mph63%29.80 "Hg10 mi
12:55 pm59 °FPartly sunny.12 mph55%29.81 "HgN/A
12:35 pm57 °FPartly sunny.12 mph67%29.83 "Hg10 mi
12:15 pm55 °FSunny.9 mph72%29.84 "Hg10 mi
11:55 am54 °FSunny.8 mph77%29.84 "Hg10 mi
11:35 am52 °FSunny.7 mph82%29.84 "Hg10 mi
11:15 am50 °FPassing clouds.9 mph82%29.86 "Hg10 mi
10:55 am48 °FPartly sunny.9 mph87%29.86 "Hg10 mi
10:35 am46 °FScattered clouds.6 mph93%29.87 "Hg10 mi
10:15 am43 °FScattered clouds.7 mph100%29.87 "Hg10 mi
9:55 am43 °FScattered clouds.5 mph93%29.86 "Hg10 mi
9:35 am41 °FScattered clouds.5 mph100%29.86 "Hg9 mi
9:15 am41 °FPartly sunny.6 mph100%29.86 "Hg9 mi
8:55 am41 °FOvercast.7 mph93%29.86 "Hg8 mi
8:35 am41 °FBroken clouds.6 mph93%29.84 "Hg10 mi
7:55 am39 °FOvercast.No wind100%29.86 "Hg10 mi
7:35 am39 °FMostly cloudy.No wind100%29.86 "Hg10 mi
7:15 am39 °FMostly cloudy.3 mph93%29.85 "Hg10 mi
6:55 am37 °FPartly cloudy.No wind100%29.85 "Hg10 mi
6:35 am39 °FMostly cloudy.3 mph93%29.85 "Hg10 mi
5:55 am37 °FMostly cloudy.5 mph93%29.84 "Hg10 mi
5:35 am36 °FMostly cloudy.5 mph93%29.84 "Hg10 mi
5:15 am36 °FPartly cloudy.3 mph93%29.84 "Hg10 mi
4:55 am34 °FPassing clouds.No wind100%29.84 "Hg10 mi
4:35 am36 °FClear.No wind87%29.84 "Hg10 mi
4:15 am36 °FClear.3 mph93%29.84 "Hg10 mi
3:55 am36 °FClear.5 mph93%29.85 "Hg10 mi
3:35 am36 °FClear.5 mph87%29.84 "Hg10 mi
3:15 am36 °FClear.No wind87%29.84 "Hg10 mi
2:55 am37 °FClear.No wind81%29.84 "Hg10 mi
2:35 am37 °FClear.5 mph81%29.85 "Hg10 mi
1:55 am37 °FClear.6 mph81%29.85 "Hg10 mi
1:15 am37 °FClear.6 mph81%29.85 "Hg10 mi
12:55 am37 °FClear.3 mph87%29.84 "Hg10 mi
12:35 am39 °FClear.6 mph75%29.85 "Hg10 mi
12:15 am39 °FClear.7 mph75%29.85 "Hg10 mi
11:55 pm
Tue, Oct 22
39 °FPassing clouds.7 mph75%29.85 "Hg10 mi
11:35 pm39 °FPassing clouds.5 mph75%29.85 "Hg10 mi
11:15 pm39 °FPassing clouds.7 mph81%29.86 "Hg10 mi
10:35 pm39 °FPassing clouds.7 mph75%29.87 "Hg10 mi
10:15 pm39 °FPassing clouds.7 mph75%29.86 "Hg10 mi
9:55 pm41 °FPassing clouds.7 mph70%29.86 "Hg10 mi
9:35 pm41 °FPassing clouds.7 mph70%29.86 "Hg10 mi
9:15 pm41 °FClear.6 mph70%29.85 "Hg10 mi
8:55 pm41 °FClear.6 mph70%29.85 "Hg10 mi
8:35 pm43 °FClear.7 mph66%29.86 "Hg10 mi
8:15 pm43 °FClear.7 mph66%29.86 "Hg10 mi
7:35 pm46 °FClear.9 mph53%29.85 "Hg10 mi
7:15 pm46 °FClear.9 mph53%29.84 "Hg10 mi
6:55 pm48 °FClear.10 mph50%29.84 "Hg10 mi
6:35 pm48 °FClear.12 mph46%29.84 "Hg10 mi
6:15 pm50 °FSunny.15 mph43%29.83 "Hg10 mi
5:55 pm50 °FSunny.22 mph43%29.83 "Hg10 mi
5:35 pm52 °FSunny.26 mph41%29.82 "Hg10 mi
5:15 pm52 °FSunny.24 mph41%29.82 "Hg10 mi
Weather by CustomWeather, © 2019

See weather overview